Location: Les Coudrans
(46.1056°N, 1.1158°W)
Time: 20:55:11
(UTC+00:00)

GP-B - Pass Details

Date: 03 March 2021
Orbit: 631 x 635 km, 89.8° (Epoch: 20 April)

Event Time Altitude Azimuth Distance (km) Brightness Sun altitude
Rises 19:21:18 0° 176° (S) 2,916 6.4 -15.9°
Reaches altitude 10° 19:23:30 10° 176° (S) 2,013 5.6 -16.3°
Maximum altitude 19:27:56 88° 93° (E) 642 3.0 -17.1°
Drops below altitude 10° 19:32:25 10° 359° (N) 2,032 5.8 -17.8°
Sets 19:34:39 0° 359° (N) 2,945 6.7 -18.2°
